FLOCK 4Q 34

导读 | 豆包AI

FLOCK 4Q 34是一颗由美国发射的遥感小卫星,于2023年11月11日北京时间8时成功进入预定轨道,属于Planet Labs公司Flock系列卫星星座的组成部分。该卫星配备高分辨率光学成像载荷,运行于近地轨道,可为全球提供高频次对地观测服务,在农业监测、城市规划、灾害应急响应、生态环境动态监管等领域具备广泛应用潜力,进一步扩充了Planet公司商业遥感卫星星座的观测覆盖能力与数据更新效率,助力全球对地观测产业化发展。

基本信息
目录编号:
58316
目录名称:
FLOCK 4Q 34
国际标识:
2023-174BN
轨道中心:
EARTH
卫星名称:
FLOCK 4Q 34
卫星全名:
--
卫星状态:
在轨 (已飞行854 天)
发射日期:
2023-11-11 UTC
国别 :
美国 (US)
星等 :
--
轨道信息
数据来源 国际轨道数据
星历时间: 2026-03-13T13:51:59+0800
19小时前
查看轨道信息
半长轴: 6777.493km
偏心率: 0.0006574
轨道倾角: 97.385°
近地点辐角 130.356°
升交点赤经 162.281°
平近点角 229.827°
近地点: 394.9km
远地点: 403.812km
周期: 92.547分钟
每日圈数: 15.559627
详细信息
使用方式:
暂无
2D轨道图
3D轨道图
轨道高度分析图
轨道倾角分析图
轨道综合分析图
查看轨道综合分析图